Voltar ao catálogo

STARLINK-31344

AtivoComunicaçõesVLEO
NORAD 59171·PAYLOAD·🇺🇸 United States

Lançado Mar 4, 2024 de Cape Canaveral Space Force Station

Loading…

Próximas Passagens (próximas 24 horas)

TLE

AtualizadoSource: CelesTrak SupGP

Época: Sep 15, 2026, 03:28 UTC

1 59171C 24044V   26258.14493056  .00036129  00000+0  13083-2 0  2587
2 59171  43.0010 117.3538 0001475 277.3778 208.4517 15.27568458    18

Acompanhe STARLINK-31344 em tempo real com AllMySat

Download on the App Store